Powrót do katalogu

AAC-AIS-SAT-1

AktywnyNaukaSSO
NORAD 55107·PAYLOAD·🇬🇧 United Kingdom

Wystrzelony Jan 3, 2023 z Cape Canaveral Space Force Station

Loading…

Następne Przeloty (najbliższe 24 godziny)

TLE

ŚwieżeSource: Space-Track

Epoka: Sep 14, 2026, 22:40 UTC

1 55107U 23001DC  26257.94489461  .00003793  00000-0  37234-3 0  9995
2 55107  97.9132 335.1961 0008724 350.4280   9.6771 14.92771491191671

Śledź AAC-AIS-SAT-1 w czasie rzeczywistym z AllMySat

Download on the App Store